Location: G�ndlingen
(48.0142°N, 7.6396°E)
Time: 02:57:54
(UTC+00:00)

Cosmos 1959 Rocket - Pass Details

Date: 05 July 2020
Orbit: 948 x 996 km, 82.9° (Epoch: 04 August)

Event Time Altitude Azimuth Distance (km) Brightness Sun altitude
Exits shadow 23:06:19 33° 175° (S) 1,562 5.0 -19.0°
Maximum altitude 23:09:16 76° 96° (E) 992 4.5 -19.1°
Drops below altitude 10° 23:15:28 10° 12° (NNE) 2,719 7.9 -19.2°
Sets 23:18:00 0° 11° (N) 3,678 9.0 -19.2°
